Location: Monteux
(44.0348°N, 4.9972°E)
Time: 17:20:00
(UTC+00:00)

COSMO-SKYMED 1 - Pass Details

Date: 30 November 2020
Orbit: 621 x 623 km, 97.9° (Epoch: 18 January)

Event Time Altitude Azimuth Distance (km) Brightness Sun altitude
Exits shadow 18:41:33 15° 344° (NNW) 1,690 4.9 -27.8°
Maximum altitude 18:44:22 29° 292° (WNW) 1,157 4.4 -28.3°
Drops below altitude 10° 18:48:05 10° 233° (SW) 1,990 5.8 -29.0°
Sets 18:50:28 0° 222° (SW) 2,892 6.6 -29.4°
